{"data":{"norad_id":67240,"epoch":"2026-05-25T03:33:44.407296Z","epoch_age_seconds":62951,"freshness":"FRESH","line1":"1 67240U 25311E   26145.14843064 -.00000097  00000+0  58934-4 0  9998","line2":"2 67240  50.0046 198.5024 0001016 245.3455 114.7312 13.29323122 20279","mean_motion":13.29323122,"eccentricity":0.0001016,"inclination_deg":50.0046,"raan_deg":198.5024,"arg_perigee_deg":245.3455,"mean_anomaly_deg":114.7312,"bstar":5.8934e-5,"rev_number":2027,"period_min":108.3258070343,"perigee_km":1148.5526471476,"apogee_km":1150.0822258891,"semimajor_km":7527.4544365184,"source":"CELESTRAK","updated_at":"2026-05-25T13:38:06.822325Z"}}